Date String (YYYY-MM-DD hh:mm:ss) UTC,Instrument flags,Ambient pressure (hPa),Sample flow (lpm),Bypass flow (lpm),Sample temperature (°C),Ambient temperature (°C),ASC tube jacket temperature (°C),LED temperature (°C),Box temperature (°C),Sample RH (%),Span deviation,Mass concentration (μg/m³),Mass concentration (μg/m³),Mass concentration (μg/m³)
DateTimeUTC,F1_M11,P_M11,Q1_M11,Q2_M11,T1_M11,T2_M11,T3_M11,T4_M11,T5_M11,U1_M11,ZSPAN_M11,X0_M11,X2_M11,X1_M11
2023-05-27 12:00:00,,0828.2,5.01,0.00,27.8,26.1,00.0,36.2,29.4,26.6,0000.0,0005.66,0003.08,0002.41
2023-05-27 12:01:00,,0828.2,5.01,0.00,27.8,26.0,00.0,36.2,29.4,26.5,0000.0,0005.64,0003.05,0002.39
2023-05-27 12:02:00,,0828.2,4.99,0.00,27.8,26.0,00.0,36.2,29.4,26.5,0000.0,0004.72,0003.01,0002.39
2023-05-27 12:03:00,,0828.2,5.00,0.00,27.8,26.0,00.0,36.2,29.4,26.6,0000.0,0004.54,0002.98,0002.39
2023-05-27 12:04:00,,0828.3,5.00,0.00,27.8,26.0,00.0,36.2,29.4,26.6,0000.0,0004.59,0002.99,0002.38
2023-05-27 12:05:00,,0828.2,5.00,0.00,27.8,26.0,00.0,36.2,29.4,26.5,0000.0,0004.76,0003.03,0002.38
2023-05-27 12:06:00,,0828.2,5.01,0.00,27.8,26.0,00.0,36.2,29.4,26.5,0000.0,0004.91,0003.07,0002.39
2023-05-27 12:07:00,,0828.2,4.99,0.00,27.8,26.0,00.0,36.2,29.4,26.5,0000.0,0004.81,0003.08,0002.39
2023-05-27 12:08:00,,0828.0,5.00,0.00,27.8,26.0,00.0,36.2,29.4,26.5,0000.0,0004.52,0003.00,0002.37
2023-05-27 12:09:00,,0828.1,5.00,0.00,27.8,26.0,00.0,36.2,29.4,26.4,0000.0,0004.44,0002.98,0002.36
2023-05-27 12:10:00,,0828.1,5.00,0.00,27.8,26.0,00.0,36.2,29.4,26.4,0000.0,0004.39,0002.97,0002.36
2023-05-27 12:11:00,,0828.1,5.01,0.00,27.8,26.0,00.0,36.2,29.4,26.4,0000.0,0004.21,0002.91,0002.37
2023-05-27 12:12:00,,0828.0,5.00,0.00,27.8,26.0,00.0,36.1,29.4,26.4,0000.0,0004.12,0002.90,0002.37
2023-05-27 12:13:00,,0828.0,5.01,0.00,27.8,26.0,00.0,36.1,29.4,26.5,0000.0,0004.19,0002.96,0002.39
2023-05-27 12:14:00,,0828.1,4.99,0.00,27.7,26.0,00.0,36.1,29.4,26.5,0000.0,0004.22,0002.97,0002.38
2023-05-27 12:15:00,,0828.1,5.00,0.00,27.7,26.0,00.0,36.1,29.4,26.5,0000.0,0004.19,0002.93,0002.36
2023-05-27 12:16:00,,0828.1,5.00,0.00,27.7,26.0,00.0,36.1,29.4,26.3,0000.0,0004.06,0002.90,0002.34
2023-05-27 12:17:00,,0828.1,5.00,0.00,27.7,26.0,00.0,36.1,29.4,26.3,0000.0,0003.88,0002.82,0002.32
2023-05-27 12:18:00,,0828.1,5.00,0.00,27.7,26.0,00.0,36.1,29.4,26.3,0000.0,0003.86,0002.78,0002.31
2023-05-27 12:19:00,,0828.1,5.00,0.00,27.7,26.0,00.0,36.1,29.4,26.2,0000.0,0003.84,0002.75,0002.30
2023-05-27 12:20:00,,0828.1,5.00,0.00,27.7,26.0,00.0,36.1,29.4,26.2,0000.0,0003.75,0002.70,0002.28
2023-05-27 12:21:00,,0828.1,4.99,0.00,27.7,26.0,00.0,36.1,29.4,26.0,0000.0,0003.83,0002.73,0002.28
2023-05-27 12:22:00,,0828.0,5.02,0.00,27.7,26.0,00.0,36.1,29.4,25.8,0000.0,0003.88,0002.75,0002.28
2023-05-27 12:23:00,,0827.9,4.99,0.00,27.7,26.0,00.0,36.1,29.3,25.7,0000.0,0003.91,0002.75,0002.26
2023-05-27 12:24:00,,0827.8,4.98,0.00,27.7,25.9,00.0,36.1,29.3,25.8,0000.0,0003.76,0002.67,0002.23
2023-05-27 12:25:00,,0827.8,5.01,0.00,27.7,25.9,00.0,36.1,29.3,25.9,0000.0,0003.79,0002.68,0002.22
2023-05-27 12:26:00,,0827.9,5.01,0.00,27.7,25.9,00.0,36.1,29.3,25.9,0000.0,0003.90,0002.74,0002.24
2023-05-27 12:27:00,,0827.9,5.00,0.00,27.7,25.9,00.0,36.1,29.3,25.8,0000.0,0003.92,0002.74,0002.23
2023-05-27 12:28:00,,0828.0,4.99,0.00,27.7,25.9,00.0,36.1,29.3,25.7,0000.0,0003.85,0002.71,0002.22
2023-05-27 12:29:00,,0828.1,4.99,0.00,27.7,25.9,00.0,36.1,29.3,25.6,0000.0,0003.78,0002.69,0002.21
2023-05-27 12:30:00,,0828.0,5.00,0.00,27.7,25.9,00.0,36.1,29.3,25.6,0000.0,0003.85,0002.72,0002.20
2023-05-27 12:31:00,,0828.1,5.01,0.00,27.7,25.9,00.0,36.1,29.3,25.5,0000.0,0003.93,0002.74,0002.21
2023-05-27 12:32:00,,0828.0,5.00,0.00,27.7,25.9,00.0,36.1,29.3,25.5,0000.0,0003.97,0002.75,0002.21
2023-05-27 12:33:00,,0828.0,5.00,0.00,27.7,25.9,00.0,36.1,29.3,25.5,0000.0,0004.01,0002.75,0002.20
2023-05-27 12:34:00,,0828.0,5.00,0.00,27.7,25.9,00.0,36.0,29.3,25.6,0000.0,0004.07,0002.76,0002.19
2023-05-27 12:35:00,,0828.1,5.01,0.00,27.7,25.9,00.0,36.0,29.3,25.6,0000.0,0004.69,0002.81,0002.20
2023-05-27 12:36:00,,0828.1,4.99,0.00,27.7,25.9,00.0,36.0,29.3,25.6,0000.0,0005.04,0002.87,0002.22
2023-05-27 12:37:00,,0828.1,5.00,0.00,27.7,25.9,00.0,36.0,29.3,25.5,0000.0,0005.04,0002.84,0002.22
2023-05-27 12:38:00,,0828.1,4.99,0.00,27.7,25.9,00.0,36.0,29.3,25.5,0000.0,0005.04,0002.82,0002.22
2023-05-27 12:39:00,,0828.0,5.00,0.00,27.7,25.9,00.0,36.0,29.3,25.4,0000.0,0005.18,0002.89,0002.24
2023-05-27 12:40:00,,0828.1,4.99,0.00,27.7,26.0,00.0,36.0,29.3,25.3,0000.0,0005.25,0002.94,0002.26
2023-05-27 12:41:00,,0828.1,5.00,0.00,27.7,26.0,00.0,36.0,29.3,25.4,0000.0,0005.39,0003.00,0002.27
2023-05-27 12:42:00,,0828.1,5.00,0.00,27.7,26.0,00.0,36.0,29.3,25.4,0000.0,0005.37,0002.97,0002.25
2023-05-27 12:43:00,,0828.0,5.00,0.00,27.7,26.0,00.0,36.0,29.3,26.2,0000.0,0005.28,0002.93,0002.25
2023-05-27 12:44:00,,0828.1,5.00,0.00,27.7,26.0,00.0,36.0,29.3,26.5,0000.0,0005.13,0002.90,0002.25
2023-05-27 12:45:00,,0828.1,5.00,0.00,27.7,25.9,00.0,36.0,29.3,26.5,0000.0,0005.02,0002.87,0002.25
2023-05-27 12:46:00,,0828.1,5.00,0.00,27.6,25.9,00.0,36.0,29.3,26.3,0000.0,0004.49,0002.85,0002.23
2023-05-27 12:47:00,,0828.1,5.00,0.00,27.6,25.9,00.0,36.0,29.3,26.1,0000.0,0004.12,0002.78,0002.21
2023-05-27 12:48:00,,0828.1,5.00,0.00,27.6,25.9,00.0,36.0,29.3,26.5,0000.0,0004.06,0002.76,0002.20
2023-05-27 12:49:00,,0828.1,5.00,0.00,27.7,25.9,00.0,36.0,29.3,26.8,0000.0,0004.05,0002.77,0002.19
2023-05-27 12:50:00,,0828.0,5.00,0.00,27.6,26.0,00.0,36.0,29.3,26.2,0000.0,0003.89,0002.71,0002.17
2023-05-27 12:51:00,,0828.1,5.00,0.00,27.7,26.0,00.0,36.0,29.3,25.9,0000.0,0003.89,0002.69,0002.15
2023-05-27 12:52:00,,0828.2,5.00,0.00,27.7,26.0,00.0,36.0,29.3,27.2,0000.0,0003.91,0002.66,0002.16
2023-05-27 12:53:00,,0828.1,5.01,0.00,27.7,26.0,00.0,36.0,29.3,27.4,0000.0,0003.96,0002.70,0002.18
2023-05-27 12:54:00,,0828.2,5.00,0.00,27.7,26.0,00.0,36.0,29.3,27.1,0000.0,0003.98,0002.72,0002.17
2023-05-27 12:55:00,,0828.2,5.01,0.00,27.7,26.0,00.0,36.0,29.3,27.5,0000.0,0004.00,0002.73,0002.19
2023-05-27 12:56:00,,0828.2,5.01,0.00,27.7,26.0,00.0,36.0,29.3,27.4,0000.0,0004.08,0002.78,0002.21
2023-05-27 12:57:00,,0828.2,5.00,0.00,27.7,26.0,00.0,36.0,29.3,27.9,0000.0,0004.17,0002.82,0002.24
2023-05-27 12:58:00,,0828.2,4.98,0.00,27.7,26.0,00.0,36.0,29.3,28.0,0000.0,0004.22,0002.88,0002.30
2023-05-27 12:59:00,,0828.2,5.00,0.00,27.7,26.0,00.0,36.0,29.3,27.8,0000.0,0004.23,0002.94,0002.37
